Temp
16 16 16 16 16 16 16 16 16 16 16 17 17 17 17 18 18 18 18 18 18 18 18 18 18 18 18 18 18 18 18 17 17 14 14 21 25 24 24 25 24 24 24 24 24 23 23 23 24 25 25 25 25 26 26 27 27 27 27 25 24 25 26 28 29 27 27 25 24 24 24 25 24 24 23 24 24 24 24 24 27 28 28 27 27 27 27 26
16 16 16 16 17 17 16 16 16 16 16 17 17 17 17 18 18 18 18 18 18 18 18 18 18 18 18 18 18 18 17 16 15 14 18 25 25 24 24 24 24 24 24 24 24 24 23 24 24 25 25 25 26 26 27 28 28 27 27 26 25 27 29 30 30 28 27 26 25 24 25 25 25 24 24 24 24 24 24 24 27 28 27 27 27 27 27 27
16 16 16 16 16 17 17 17 16 17 17 17 17 17 18 18 18 18 18 18 18 18 18 18 18 18 18 18 18 18 16 14 17 19 24 27 25 24 24 23 24 24 25 25 25 25 24 25 25 25 25 25 26 27 27 28 29 28 28 27 27 29 30 30 30 28 27 26 25 24 25 25 24 24 24 24 24 24 25 26 27 27 26 26 27 27 27 27
17 16 16 16 16 17 17 17 17 17 17 17 17 17 18 18 18 18 18 18 18 18 18 18 18 18 18 18 18 17 14 16 22 25 26 27 26 25 24 24 24 24 25 25 25 25 25 26 26 26 25 25 26 27 27 28 29 30 29 28 29 30 30 29 29 28 27 26 25 25 25 24 24 24 24 25 24 24 25 27 28 27 27 27 27 27 27 27
17 17 16 16 16 17 17 17 17 17 17 17 18 18 18 18 18 18 17 18 18 17 17 18 18 18 18 17 18 16 16 21 26 26 26 27 26 26 25 24 24 24 24 25 25 25 25 25 26 26 26 26 26 27 27 28 29 30 30 30 30 30 30 29 29 28 27 26 25 25 25 24 24 24 25 25 25 24 25 26 28 28 27 27 27 27 27 27
17 17 16 16 16 17 17 17 17 17 18 18 18 18 18 18 18 18 17 18 18 17 17 18 18 18 18 17 17 16 19 24 25 26 27 27 26 26 25 24 24 24 24 24 25 25 25 25 25 25 26 26 26 27 27 29 30 29 30 31 31 31 31 29 29 28 27 26 25 25 25 25 24 25 25 25 25 25 25 25 28 29 28 28 28 28 27 27
16 17 16 16 16 16 17 17 17 17 18 18 18 18 19 19 19 18 17 18 18 18 18 18 18 18 18 17 16 16 19 23 25 27 27 27 27 26 25 24 24 23 24 24 24 25 25 25 25 26 26 27 27 28 28 30 30 29 29 31 31 32 31 30 30 28 27 27 26 26 26 25 25 25 25 25 25 25 24 25 27 29 29 29 28 28 27 27
16 16 16 16 16 16 16 17 17 17 18 18 18 18 19 19 19 19 18 17 17 18 18 18 17 17 18 17 17 18 19 23 27 27 27 27 26 25 25 24 23 23 23 23 24 25 25 25 25 26 26 27 28 29 29 30 30 30 30 31 32 33 32 30 29 28 27 27 27 27 26 25 26 26 25 25 25 24 24 25 27 29 29 29 28 28 28 27
17 16 15 15 15 16 16 17 17 17 18 18 18 18 19 19 19 19 18 18 17 17 18 17 17 17 17 17 17 21 24 26 28 27 27 27 26 26 25 24 23 23 23 23 24 25 25 26 26 27 27 28 29 29 30 29 29 31 31 31 32 33 32 30 29 28 28 27 27 27 26 26 26 26 25 25 25 24 25 25 27 29 29 29 29 28 28 27
16 16 15 15 15 16 16 17 17 18 18 18 18 18 19 19 19 19 19 18 18 18 18 17 17 17 17 17 18 23 27 27 28 27 27 27 26 25 24 24 24 23 23 23 24 25 26 26 27 28 28 28 30 30 30 30 30 32 32 32 33 33 32 30 29 28 28 28 27 27 25 26 26 26 26 25 25 25 24 25 28 29 29 29 29 28 28 28
15 15 15 15 15 16 16 17 17 18 18 18 18 19 19 19 19 20 19 19 18 18 18 17 17 17 17 17 20 25 28 28 28 27 27 26 26 26 25 25 24 23 24 23 24 25 26 27 28 28 28 29 30 30 31 31 32 32 33 33 33 34 32 31 29 28 28 28 27 27 26 26 26 26 26 26 25 24 24 26 27 29 29 29 29 28 28 28
14 15 14 14 15 15 16 17 17 18 18 18 19 19 20 20 20 20 19 20 19 19 18 17 17 17 17 17 19 25 28 28 28 27 26 27 27 27 26 25 25 24 24 24 24 26 26 27 28 27 28 29 29 30 31 32 32 32 32 32 33 34 32 30 29 28 28 27 27 27 25 25 26 26 26 26 25 24 25 25 26 28 29 29 29 28 28 28
12 14 14 14 15 15 16 16 17 17 18 19 19 20 20 20 20 20 20 20 20 19 18 18 17 17 17 19 22 26 28 28 28 27 26 27 27 27 27 26 26 25 25 26 25 26 27 27 28 27 28 28 28 30 31 32 32 31 32 32 32 32 30 29 29 29 29 27 28 28 25 24 26 26 26 26 25 25 24 24 25 26 28 29 29 28 28 28
12 13 13 14 15 15 15 16 16 17 17 18 19 20 21 21 21 20 20 20 20 20 19 18 17 17 17 21 26 27 27 27 28 28 27 28 28 27 27 26 26 25 26 26 27 27 27 28 28 28 29 29 29 31 31 31 31 31 31 31 31 28 28 30 29 29 29 27 29 29 25 24 26 27 27 26 25 25 24 24 24 24 26 28 29 28 28 28
12 13 14 14 15 15 15 16 16 16 17 18 19 21 21 21 21 21 21 21 20 20 19 18 17 17 18 21 25 27 27 27 27 28 29 28 28 27 27 26 26 26 26 26 27 28 28 29 28 28 28 30 30 30 30 30 30 31 28 27 29 27 28 31 29 29 29 27 29 29 25 25 27 27 27 26 25 25 24 24 24 23 24 27 29 28 28 28
13 14 14 14 15 15 16 16 17 17 17 18 20 21 22 22 22 22 22 21 21 20 19 18 17 17 19 23 26 27 27 28 28 29 29 29 29 28 28 27 27 26 26 27 28 28 29 29 28 28 29 30 30 29 28 27 27 30 27 24 26 26 27 30 30 30 29 27 28 28 26 26 27 27 26 25 25 25 24 24 24 24 23 25 28 28 28 28
13 14 14 15 15 15 16 17 17 17 18 19 20 22 23 23 23 22 21 21 20 19 18 18 18 17 21 24 26 26 27 28 29 29 29 29 29 29 29 27 27 27 27 28 28 28 28 28 28 29 29 29 29 29 26 23 23 26 27 25 26 27 27 28 30 31 29 28 28 28 28 27 28 27 25 25 25 24 24 24 24 24 23 25 28 29 28 28
12 14 14 15 16 16 16 17 17 18 18 20 21 22 23 23 22 21 21 20 19 18 18 18 18 19 22 25 26 27 28 29 29 29 29 29 29 29 29 28 28 27 27 27 28 28 28 28 28 28 29 28 29 28 23 22 23 24 25 24 25 27 27 27 30 30 29 28 28 28 28 27 28 27 25 24 25 24 24 25 25 25 25 26 29 29 28 28
12 13 14 15 16 16 17 17 18 18 19 21 22 22 23 22 21 21 20 19 19 20 21 20 20 22 24 25 27 28 29 29 29 29 29 29 29 29 29 29 28 28 27 26 27 27 28 28 27 26 26 27 28 27 25 26 27 26 26 26 25 25 27 29 31 31 29 29 29 29 28 27 27 27 26 25 25 25 25 25 26 27 27 28 29 29 29 28
12 13 13 15 16 17 17 18 18 18 19 21 21 22 22 22 21 22 21 20 21 22 23 22 21 23 24 25 27 28 29 29 29 29 29 29 29 29 29 29 28 27 27 26 26 27 28 26 25 25 26 27 28 28 28 28 29 28 28 27 26 25 26 30 32 31 31 29 29 30 29 28 27 27 27 26 25 26 26 26 26 28 29 28 28 28 29 28
13 13 13 14 16 17 18 18 18 19 19 20 20 20 21 22 21 21 21 22 22 22 23 23 23 23 24 25 27 28 28 28 28 29 29 29 29 28 28 28 27 26 26 27 26 27 27 25 25 26 27 27 28 29 29 29 29 29 27 26 26 26 26 30 32 32 32 30 28 30 29 27 28 27 28 27 26 27 27 27 27 28 29 28 28 29 28 29
12 13 13 14 16 18 18 19 19 19 20 20 20 19 20 22 23 22 22 22 22 23 23 23 24 24 25 26 27 28 28 27 28 28 29 29 28 27 27 27 26 26 26 27 26 26 25 24 25 27 28 28 29 29 29 29 29 28 28 26 24 26 28 29 32 33 33 30 28 30 29 27 28 28 28 28 27 28 28 28 28 28 28 28 29 29 28 28
12 13 13 14 16 18 18 19 19 19 20 19 18 19 21 22 23 23 23 21 21 23 23 24 24 25 26 27 28 28 27 27 27 28 29 28 27 28 27 26 26 26 26 26 26 24 23 24 27 28 28 29 28 29 29 28 28 28 27 25 24 27 27 26 30 33 34 32 30 29 28 27 28 28 28 28 28 28 29 29 29 29 28 28 29 29 29 28
12 13 14 14 16 18 19 19 20 19 20 20 20 20 22 23 23 23 22 21 21 22 23 24 25 26 27 28 28 28 27 27 27 28 29 28 28 28 27 26 26 26 26 27 26 25 24 26 28 28 28 29 28 28 29 27 26 27 28 26 25 28 28 27 30 32 33 32 31 29 25 25 27 27 28 28 29 29 29 29 29 28 29 28 29 29 29 29
12 13 14 14 15 17 19 19 19 19 19 21 21 21 22 23 23 23 22 20 21 22 24 25 26 26 27 27 28 28 27 27 28 28 29 29 28 28 27 27 27 26 26 27 26 25 26 28 29 28 28 28 28 28 29 27 25 26 28 29 28 29 30 30 31 31 28 26 29 29 22 22 26 27 27 28 28 29 29 29 28 28 28 28 28 28 29 29
12 13 14 14 14 17 19 19 19 18 18 20 21 21 22 22 23 23 21 20 20 23 25 25 25 26 27 27 27 28 26 27 28 29 29 29 29 28 27 27 27 27 27 27 27 26 27 28 29 28 28 28 28 27 28 29 25 24 28 31 31 31 30 30 30 28 24 24 29 30 24 21 24 26 28 28 28 28 29 28 28 28 28 28 28 28 28 29
13 13 14 14 14 15 15 17 17 17 19 20 21 21 22 22 22 22 21 19 20 24 25 25 25 26 26 26 27 27 25 26 28 28 29 29 29 28 27 27 27 27 28 28 25 26 28 29 28 28 28 28 27 27 29 30 26 24 30 32 31 31 30 30 30 27 26 27 29 30 27 22 22 25 28 29 28 28 28 28 28 27 27 28 28 28 28 28
13 14 14 14 15 14 13 15 15 16 19 21 21 21 21 22 22 21 20 19 21 25 25 25 25 26 26 26 27 27 26 27 27 27 29 29 28 28 26 27 27 26 28 26 23 26 29 29 28 29 28 27 27 28 30 30 28 28 32 32 31 32 32 32 30 27 27 27 24 26 27 23 21 25 29 29 27 27 28 28 28 28 27 27 28 28 28 28
14 14 14 15 16 15 14 14 14 17 20 21 21 21 21 22 22 21 20 20 22 25 25 25 25 25 26 26 26 27 27 27 27 27 28 28 28 28 27 27 27 26 28 27 25 26 29 29 29 29 28 28 29 30 30 30 30 31 32 32 32 32 32 32 30 27 26 25 22 24 26 23 21 24 26 27 26 27 28 28 28 28 28 27 28 28 28 28
14 14 14 15 15 15 15 14 17 20 21 21 21 21 21 21 21 20 19 21 23 24 24 25 25 26 26 26 26 27 27 27 28 28 28 28 28 28 28 28 27 27 27 27 27 27 28 29 30 30 29 30 31 31 31 31 31 32 32 31 31 31 31 31 29 27 24 23 23 24 26 25 22 23 25 26 27 28 29 29 29 28 28 28 28 28 28 28
15 16 15 15 15 15 14 16 19 20 20 20 20 21 21 21 20 20 20 23 23 23 24 25 25 26 26 26 26 26 26 27 28 28 27 27 26 26 26 26 26 26 25 25 27 27 27 29 30 30 31 31 31 31 31 31 32 32 32 30 27 26 27 26 25 25 23 22 23 25 27 25 22 23 26 28 30 30 30 29 29 29 28 28 28 28 29 29
17 17 17 16 17 17 16 19 20 20 20 20 20 21 21 20 20 20 21 23 23 23 24 25 26 26 26 26 26 26 27 27 27 27 27 26 24 24 24 23 24 23 22 22 24 25 26 28 29 30 31 30 29 30 30 31 31 32 30 27 23 22 23 22 22 23 22 22 24 26 26 24 23 26 28 30 30 30 30 30 30 29 29 28 28 28 29 29
17 18 18 18 18 18 19 20 20 20 20 19 19 20 20 20 20 20 21 22 22 23 25 26 26 26 26 26 25 26 26 26 26 27 27 25 23 23 23 23 23 23 22 22 22 22 24 26 27 29 30 29 27 27 27 28 30 30 28 25 22 22 22 21 22 22 22 22 25 27 26 23 24 28 31 30 31 31 31 31 30 30 29 28 28 28 29 29
18 19 19 19 19 20 21 21 20 20 19 19 19 20 20 20 20 21 21 21 23 25 25 25 26 26 26 26 25 26 25 25 26 26 25 24 23 22 22 23 23 23 23 22 22 21 21 23 25 26 26 27 27 26 26 28 29 29 30 28 24 22 22 22 22 22 22 22 24 26 25 22 23 28 32 31 31 32 32 31 31 30 30 29 29 29 29 29
19 19 20 20 20 21 21 21 21 19 18 18 19 20 20 19 20 21 21 22 23 24 24 25 25 25 25 25 25 25 24 25 26 24 22 22 21 21 22 22 22 23 22 21 21 21 20 21 24 25 26 26 26 26 27 29 28 29 31 28 24 25 25 22 22 23 22 22 23 23 24 25 28 32 33 32 32 32 32 32 31 30 30 29 29 29 29 29
20 21 21 21 21 22 22 21 21 19 18 19 20 20 20 20 20 21 21 22 23 23 23 24 24 23 23 24 25 25 25 25 25 23 22 21 21 21 21 21 22 22 22 21 21 21 20 21 24 25 26 27 25 25 27 27 26 28 28 25 26 30 28 23 22 23 23 22 22 23 23 26 29 31 34 34 33 33 32 32 32 31 30 29 29 29 29 29
20 20 20 21 22 22 22 22 21 19 19 19 20 20 21 21 22 22 22 23 23 23 22 21 22 22 21 22 23 24 25 24 24 23 22 21 20 20 21 21 22 22 22 22 22 21 21 21 24 25 25 25 25 26 28 27 27 27 25 26 29 30 29 25 22 22 22 21 22 23 23 24 24 26 31 33 32 33 32 32 32 31 30 29 29 29 29 29
17 17 18 21 23 23 23 22 21 20 20 20 20 21 22 22 22 23 22 22 23 23 22 20 21 22 21 20 21 23 24 22 22 23 21 20 20 20 20 21 22 22 21 22 21 21 21 21 23 24 23 24 26 26 26 26 27 26 25 28 28 24 24 24 22 22 22 21 22 22 23 23 22 24 27 28 29 31 31 32 32 31 30 29 29 29 29 29
16 17 20 22 23 23 23 22 22 21 20 20 20 21 22 22 22 22 22 22 22 22 21 21 21 21 21 20 20 22 22 21 21 21 20 20 19 20 20 20 21 21 21 21 19 20 21 20 22 23 22 23 25 24 22 23 25 26 26 28 27 24 23 23 23 23 22 21 22 22 22 22 23 26 27 27 28 29 30 32 32 31 30 30 30 29 29 29
16 18 22 23 24 24 23 23 22 21 21 21 21 21 21 21 21 22 22 22 22 22 21 21 21 21 20 21 20 21 21 21 21 20 20 19 19 19 20 20 21 21 21 21 19 19 20 20 20 21 22 23 23 22 22 22 23 24 23 23 24 24 25 24 24 23 22 22 22 22 21 21 25 28 28 28 28 28 29 31 32 31 31 30 30 30 29 29
15 19 22 24 24 24 23 22 21 21 21 21 21 21 21 21 21 21 21 22 22 22 22 21 20 20 20 20 20 20 21 20 20 19 19 19 18 19 19 20 20 21 20 20 19 19 19 19 19 19 20 21 21 22 23 23 24 23 23 22 22 22 23 22 23 23 23 22 22 22 21 21 26 28 27 28 28 28 29 29 30 31 31 30 30 30 30 30
16 20 23 24 24 23 23 21 21 22 21 21 21 21 21 21 21 21 21 21 21 21 22 21 21 20 20 20 20 20 20 20 19 18 18 18 18 18 19 20 20 20 19 19 18 19 19 19 18 18 19 20 20 22 23 23 24 23 22 22 22 22 21 20 21 22 22 22 22 22 21 22 27 27 26 27 28 28 28 28 28 29 30 30 31 30 30 30
16 19 22 24 24 23 22 21 21 22 21 21 21 21 21 21 20 20 20 20 20 20 21 21 20 20 20 20 20 19 19 19 18 18 18 18 18 19 19 20 20 20 19 18 18 19 19 18 17 18 19 20 21 22 22 22 22 21 21 22 22 22 22 22 22 22 22 21 21 22 21 22 26 27 25 25 26 27 27 27 27 27 28 29 30 31 31 31
14 16 20 23 24 23 21 19 20 20 20 21 20 20 20 20 20 20 19 19 20 20 20 20 20 20 20 20 19 18 19 18 18 18 18 18 18 19 20 20 20 20 20 19 19 19 19 17 17 18 19 20 21 21 20 20 20 20 20 21 22 22 22 23 22 22 21 21 20 21 21 22 25 27 25 23 24 25 26 27 27 26 26 27 28 28 28 29
15 17 19 22 23 22 21 20 20 19 19 20 20 19 20 20 20 20 19 19 19 20 20 19 20 20 19 19 18 18 18 18 17 17 18 17 18 19 19 19 20 20 20 20 20 19 18 17 17 17 17 18 18 18 17 18 18 19 20 21 21 21 21 21 21 21 21 20 21 21 21 22 24 27 25 22 22 23 24 26 26 25 25 25 25 25 25 25
18 19 19 21 21 21 20 20 20 19 19 19 19 19 19 19 19 20 20 18 18 19 20 19 19 19 19 19 18 17 17 17 17 17 17 17 18 18 19 19 20 20 20 20 20 19 18 17 17 17 16 16 17 17 18 18 18 19 19 20 20 21 21 21 20 20 20 20 20 21 21 21 23 25 25 22 21 22 22 24 25 24 24 24 24 24 24 23
18 18 18 18 19 20 19 20 20 19 19 19 18 19 18 18 18 19 19 19 18 18 19 19 18 18 18 18 17 17 17 17 17 17 17 17 17 18 19 19 19 20 20 19 19 18 17 16 17 17 17 17 17 17 18 19 19 19 19 20 20 21 21 21 20 20 21 20 20 21 22 21 22 25 24 22 22 21 22 22 23 22 22 22 23 23 23 23
17 18 18 17 18 19 18 19 19 19 19 19 18 18 17 17 17 17 18 18 18 18 18 18 17 17 17 18 17 16 16 16 16 17 17 17 17 17 18 19 19 19 19 19 18 18 16 16 17 17 16 17 17 17 18 18 18 19 19 19 20 20 20 20 20 21 21 20 21 22 22 22 23 24 24 23 22 21 21 21 21 21 21 21 21 22 22 22
16 16 16 17 18 18 18 19 19 18 18 18 18 17 17 16 16 17 17 17 17 18 17 17 17 18 18 18 17 16 16 16 16 16 17 17 17 17 17 18 18 19 19 18 18 18 17 17 17 16 16 16 17 17 18 18 18 18 18 19 19 20 20 20 21 21 21 21 22 22 22 22 24 24 24 23 22 21 21 21 20 20 21 21 20 21 21 21
14 15 15 15 17 19 18 18 18 17 18 18 17 17 17 16 16 17 17 17 17 17 18 17 17 18 18 17 17 17 17 17 16 16 17 17 17 17 17 17 18 18 18 18 17 17 17 17 17 16 15 15 16 17 17 17 17 17 17 18 19 20 20 21 21 21 21 21 22 22 21 22 23 24 23 22 21 20 20 19 19 19 20 20 20 20 20 20
13 14 14 15 17 19 18 18 18 17 17 17 17 17 17 16 17 17 17 17 17 17 18 18 18 18 18 18 17 17 18 18 17 17 17 17 17 17 17 18 18 17 17 17 17 17 16 16 16 16 15 15 16 16 16 17 17 17 17 18 19 20 20 20 20 20 20 19 21 21 21 21 22 22 22 21 20 19 19 18 19 19 19 19 19 19 19 19
13 14 14 15 17 18 18 18 18 17 17 17 17 17 17 17 17 17 17 18 18 18 18 18 18 18 18 17 17 18 18 18 18 18 18 18 18 18 18 18 18 17 17 17 17 17 16 16 16 15 14 14 15 16 16 16 16 16 17 18 19 19 19 19 20 20 19 19 20 20 20 20 21 21 20 20 19 19 18 18 18 18 18 18 18 18 18 18
Height
813 811 809 807 806 804 802 800 799 797 795 794 793 792 790 789 787 785 784 782 781 779 777 776 775 776 776 775 774 773 772 771 770 771 768 760 757 760 762 763 765 767 768 769 771 773 774 776 777 777 780 781 782 780 779 777 776 783 793 802 805 801 795 784 783 783 784 790 795 794 790 794 797 796 793 791 795 797 796 795 791 788 787 790 792 793 796 800
812 811 809 807 805 803 801 800 798 796 795 793 792 791 789 788 786 784 783 781 780 778 776 775 774 774 774 774 773 771 771 769 769 767 760 754 756 759 760 762 764 766 766 768 769 770 773 775 775 776 779 782 781 778 780 775 774 785 791 798 799 790 781 772 772 776 778 784 789 791 789 791 794 794 792 795 801 798 801 802 795 793 793 793 793 795 798 800
812 810 808 806 804 802 801 799 797 796 794 792 791 790 788 787 785 783 782 780 778 777 775 774 773 773 773 773 772 771 770 769 767 761 753 751 755 756 759 761 762 765 765 767 768 769 771 772 773 775 780 783 780 777 781 775 774 779 784 796 790 776 773 768 768 771 774 777 784 790 787 789 790 790 790 796 802 801 803 802 796 797 797 796 795 794 798 800
811 810 807 805 804 802 800 798 796 795 793 791 790 788 787 786 784 782 780 779 777 776 775 774 773 772 772 771 771 771 769 769 764 755 752 752 753 755 758 759 761 764 765 766 768 769 771 772 773 774 780 785 779 777 780 775 773 774 778 787 777 768 774 772 768 769 771 773 780 787 788 791 790 788 790 794 803 806 802 795 792 794 793 793 794 794 797 799
811 809 807 805 803 801 799 797 795 793 792 790 789 787 786 785 783 781 779 778 777 775 774 774 773 772 772 771 771 770 770 772 763 752 753 753 753 755 756 758 761 763 764 766 768 769 771 772 774 775 780 784 782 781 779 769 769 774 773 772 766 766 774 771 766 768 770 773 779 785 789 792 790 791 792 793 803 806 798 791 787 787 787 789 790 793 796 798
810 808 806 804 802 800 798 796 794 792 791 789 787 786 785 784 782 781 779 777 776 775 774 773 773 772 772 771 771 770 771 771 758 751 753 752 753 754 755 758 760 762 764 766 766 768 771 772 777 780 781 782 783 782 776 766 766 777 773 764 762 763 769 768 764 767 770 774 779 782 783 785 790 794 792 792 796 795 791 787 784 784 785 787 789 791 795 798
809 807 805 803 801 799 797 795 793 791 789 787 786 784 783 782 781 780 778 776 775 774 774 773 773 772 772 771 771 771 771 765 752 750 752 751 753 753 755 758 759 762 763 764 766 768 770 774 778 779 781 783 781 777 772 765 764 775 774 763 760 759 762 763 761 766 769 771 773 774 778 782 790 793 790 791 791 789 788 785 783 783 784 787 790 792 795 798
808 806 804 802 800 798 796 794 792 790 788 786 784 783 782 780 780 779 777 776 774 774 773 772 772 772 772 771 771 771 770 759 748 750 751 751 752 753 756 757 758 760 761 763 763 765 769 774 776 775 782 781 775 772 768 769 769 771 770 761 756 755 756 757 759 766 769 770 770 773 781 783 785 787 790 791 789 789 787 785 782 783 786 788 790 792 795 798
807 805 803 801 799 796 794 792 790 788 786 784 783 781 780 779 778 777 776 775 773 773 772 771 771 770 771 770 771 770 762 751 747 750 749 750 751 752 754 754 757 758 760 762 761 765 768 771 772 770 777 774 769 769 765 774 776 764 761 758 755 754 753 756 761 766 769 770 769 777 786 784 779 782 792 791 787 789 786 785 783 783 788 789 791 792 794 798
806 804 802 800 797 795 793 790 788 786 784 783 781 779 778 777 776 775 775 773 772 772 771 771 770 769 770 769 771 768 753 746 748 748 748 749 749 751 752 752 755 756 758 760 760 763 763 764 765 763 770 769 766 766 764 771 769 756 755 755 753 753 752 756 763 766 770 771 769 778 788 786 779 783 796 792 785 787 788 788 784 784 789 789 791 792 793 797
805 803 801 799 796 794 791 789 787 784 782 780 778 777 776 775 774 773 773 772 771 771 770 770 768 769 769 768 771 763 748 746 748 747 748 749 749 750 750 751 752 754 756 758 759 759 757 758 759 762 770 767 764 765 762 760 758 753 754 756 753 750 753 757 763 767 769 774 771 775 786 788 784 787 792 787 783 786 790 791 786 786 789 789 791 792 794 796
804 802 800 798 795 792 790 788 785 782 780 777 776 774 773 773 772 772 771 770 770 770 769 769 769 768 768 769 767 755 745 746 747 747 748 747 748 748 748 750 750 752 753 755 757 756 756 757 759 767 769 764 767 769 761 752 753 754 753 761 758 752 760 760 762 766 767 774 770 772 792 797 791 790 786 782 783 785 790 793 791 789 789 789 791 793 794 795
804 801 799 797 794 791 789 786 784 781 778 775 773 771 771 770 770 770 769 769 768 768 768 768 769 767 769 767 756 746 744 746 746 747 748 747 747 748 748 749 749 751 752 753 754 753 755 757 760 765 762 765 771 764 755 750 752 756 754 761 763 763 770 763 760 764 766 770 763 769 800 806 794 789 782 780 783 787 794 797 795 793 790 790 792 794 795 795
803 800 798 795 792 790 788 785 783 780 776 773 770 769 768 767 768 767 766 767 767 767 768 768 768 767 769 761 745 743 745 744 745 745 746 746 746 747 748 748 749 750 751 752 753 753 756 757 759 761 759 763 763 756 756 758 757 761 761 762 767 775 775 764 761 766 771 771 758 767 797 802 791 786 780 779 782 787 795 797 796 796 794 791 791 794 795 794
802 799 796 794 791 788 786 783 781 778 775 772 768 766 765 765 765 764 764 765 765 766 766 767 767 767 769 759 743 743 744 743 744 743 744 744 745 746 746 747 748 749 750 751 752 753 755 756 760 764 762 756 757 763 769 769 764 764 773 776 773 776 773 764 761 762 770 772 762 771 792 795 789 783 778 778 781 785 793 796 796 798 796 794 792 793 794 794
800 797 795 792 789 787 784 781 779 776 773 770 767 764 762 763 762 761 762 762 763 764 765 767 766 766 769 758 744 742 743 742 742 741 742 743 744 745 744 746 747 748 751 751 752 753 753 756 758 760 760 759 763 772 776 779 777 771 777 784 777 776 774 767 762 756 761 770 770 774 787 793 786 779 778 777 779 784 791 795 796 796 796 795 793 792 793 794
799 796 794 791 788 785 782 780 777 774 771 768 765 762 760 760 759 759 760 761 763 762 763 765 765 767 763 750 745 745 741 740 740 740 741 741 742 743 744 746 747 748 749 750 752 753 754 757 760 759 760 764 767 772 785 795 792 781 778 781 777 775 775 772 765 757 757 768 774 775 781 786 779 775 779 777 777 783 788 792 792 793 796 795 791 791 792 792
798 796 793 790 786 783 781 778 776 772 769 766 764 761 759 758 757 758 759 761 762 762 764 765 765 770 763 748 747 746 739 739 739 739 740 740 741 742 743 745 746 748 752 755 755 755 758 759 762 767 767 769 770 775 792 796 789 785 782 783 780 775 775 774 767 760 761 768 773 776 781 781 775 775 778 778 777 781 784 786 788 789 793 793 788 788 789 790
798 795 792 789 785 782 779 777 775 772 768 764 763 761 758 757 757 757 759 761 762 764 765 764 764 767 762 750 744 741 738 738 738 738 739 739 740 741 742 744 745 750 759 764 762 759 761 764 769 776 777 774 773 776 784 782 777 779 779 780 782 778 774 769 763 757 759 769 773 773 777 778 777 776 777 777 776 779 781 782 785 785 786 787 785 785 786 788
797 794 791 788 784 781 778 775 774 772 768 765 763 760 760 762 763 763 760 759 760 759 758 758 758 758 755 748 741 740 739 738 738 737 738 739 739 741 742 744 748 754 762 768 768 760 761 774 779 778 778 774 771 771 773 772 771 774 777 778 778 778 774 763 758 753 753 768 772 766 771 775 774 774 772 773 775 777 780 781 781 780 779 781 782 783 784 785
796 793 790 787 784 780 777 775 773 771 769 767 765 764 766 768 771 770 764 758 754 752 753 752 752 753 750 744 740 738 740 740 738 736 737 737 738 745 748 748 757 764 763 764 766 760 763 779 780 772 771 768 766 767 767 769 771 774 778 780 778 777 772 759 754 751 748 762 768 762 769 774 770 770 768 768 773 775 774 776 776 774 775 777 778 780 781 782
795 792 789 786 783 779 776 774 772 771 769 768 767 768 768 767 768 767 765 764 755 748 750 748 747 749 743 740 739 737 742 746 744 738 736 737 740 749 752 753 762 767 762 762 767 770 776 781 774 765 764 764 764 764 766 769 771 774 776 780 781 774 767 759 750 746 745 757 767 762 767 771 766 765 765 764 766 767 766 767 768 769 772 774 775 777 778 780
794 791 788 785 781 778 776 773 772 771 770 769 768 768 767 766 765 762 764 769 760 748 747 746 746 746 741 740 737 737 745 749 749 742 734 738 744 747 753 757 762 764 763 766 771 780 785 777 765 760 760 762 766 764 766 770 771 774 776 780 780 769 769 768 754 746 743 749 759 761 766 772 770 769 768 763 761 762 763 763 764 765 767 768 769 771 774 777
793 790 788 784 781 778 774 773 772 771 770 768 768 767 767 766 764 762 763 768 766 752 743 742 742 742 741 739 736 739 746 746 746 743 734 739 745 745 751 756 760 765 765 764 767 776 778 766 755 758 760 762 767 766 766 773 775 773 771 775 774 764 765 766 755 748 743 743 749 760 781 786 777 777 775 766 764 764 763 764 766 765 764 765 766 767 769 771
792 789 787 783 781 777 773 772 771 771 770 768 768 767 767 766 763 762 765 772 772 755 742 741 740 740 737 736 737 738 744 744 741 738 733 735 742 747 751 752 757 766 765 762 766 772 769 756 750 759 762 761 767 767 765 769 775 774 766 762 761 759 758 757 754 753 756 762 754 759 795 803 780 778 779 771 769 769 765 766 768 767 765 765 767 766 766 767
791 788 785 783 781 775 772 771 771 771 769 768 769 766 766 766 764 763 767 780 779 757 747 746 743 742 738 738 737 736 749 750 736 732 733 734 736 742 752 752 753 760 759 757 762 765 760 751 749 757 761 762 766 767 761 761 773 776 760 748 749 752 755 755 755 758 765 773 761 755 785 802 789 782 777 770 771 770 767 768 767 766 765 764 764 764 764 764
789 787 784 782 780 777 774 772 773 772 770 769 768 767 766 764 764 763 770 791 784 756 749 750 744 743 740 738 736 742 759 753 737 734 732 734 735 737 752 756 754 756 750 754 766 761 752 751 752 754 758 763 767 767 757 753 769 770 748 741 746 748 752 753 753 760 760 759 761 757 766 791 797 782 768 767 773 774 770 769 767 764 764 762 761 761 760 761
787 785 783 780 779 779 776 774 774 772 770 770 766 766 766 764 764 764 778 799 782 751 748 749 742 740 738 737 737 744 752 746 747 745 730 732 737 739 753 755 755 757 749 758 774 760 748 752 754 753 758 763 762 758 748 748 761 756 738 738 743 742 746 747 749 756 755 756 770 765 760 788 799 773 762 769 775 777 772 766 764 761 760 759 758 758 758 758
785 783 781 778 777 777 775 775 774 771 770 768 766 766 764 763 764 768 786 795 771 749 749 747 743 742 740 741 742 743 743 743 750 745 731 734 736 738 751 750 750 756 750 755 766 757 747 746 745 748 756 757 751 745 740 745 752 742 734 738 740 740 743 745 751 753 755 764 776 767 757 781 795 775 769 778 778 775 767 759 756 754 755 756 755 755 756 756
782 781 779 776 775 775 775 774 771 769 768 766 767 765 762 765 769 781 796 787 765 755 751 748 748 746 745 749 749 746 746 746 744 739 737 740 738 739 744 742 745 753 753 752 755 752 745 738 736 741 745 742 739 738 735 738 740 733 735 741 744 747 744 746 751 753 766 776 771 763 755 765 787 782 772 772 765 757 754 754 754 752 754 754 753 752 752 754
780 778 777 775 773 773 773 772 769 768 768 767 767 763 763 769 776 793 795 770 760 762 754 752 751 747 749 753 753 750 749 748 743 744 747 746 749 752 751 752 753 756 761 760 754 751 746 742 740 736 733 733 734 736 733 730 732 735 743 748 755 760 754 757 760 760 781 787 766 758 755 758 779 781 765 754 743 738 742 747 749 749 750 750 749 749 748 750
777 776 775 773 772 771 771 770 768 768 768 767 766 764 769 779 785 793 783 763 766 769 757 754 752 748 751 752 754 752 750 751 748 749 753 755 762 765 765 769 767 769 777 774 766 759 751 747 744 735 729 734 742 743 738 734 734 739 747 754 768 779 779 783 783 778 787 782 760 754 757 763 769 761 751 746 738 735 735 736 738 740 743 745 746 746 744 746
775 773 772 772 770 770 769 768 767 768 768 767 767 767 774 788 792 786 778 772 772 765 754 753 750 749 752 753 756 753 751 755 752 751 754 759 768 770 768 769 766 772 779 776 776 775 765 753 746 743 738 737 746 752 751 747 742 745 749 757 773 787 798 804 798 792 789 773 753 747 756 768 764 746 739 738 732 728 727 728 731 731 734 738 739 741 742 742
774 772 772 771 769 768 767 767 768 768 769 767 769 773 781 794 792 779 778 777 767 757 754 754 752 751 753 755 757 754 756 759 754 756 760 765 774 778 775 771 767 770 773 776 781 785 787 775 758 756 753 745 747 753 753 747 744 745 742 750 765 774 789 800 795 792 790 776 758 751 759 771 763 741 730 726 720 718 720 722 724 726 728 731 734 738 741 741
773 772 771 769 768 767 766 767 768 769 771 770 773 781 790 798 791 781 782 776 766 762 759 754 754 758 760 757 756 754 758 762 758 763 772 778 785 786 783 781 776 773 776 783 786 786 793 784 762 756 754 749 752 750 743 743 749 746 738 748 761 758 763 778 781 777 778 781 774 762 760 757 743 728 718 718 718 716 717 717 720 725 726 729 736 738 738 740
772 770 769 768 767 766 765 767 768 769 771 773 779 788 792 793 788 782 780 773 769 768 765 761 761 767 769 763 760 757 756 761 763 770 779 783 788 790 787 785 780 777 780 786 790 792 794 781 760 754 751 748 754 749 741 748 753 747 746 754 753 743 748 768 778 770 772 789 784 767 763 751 739 731 718 716 719 717 718 717 717 721 722 728 734 733 735 736
772 770 768 767 766 766 766 767 768 770 771 776 785 788 785 783 780 776 774 770 769 767 770 778 775 775 779 775 773 766 761 764 766 772 782 786 792 795 791 787 782 779 780 781 786 790 793 783 764 758 758 751 748 744 739 743 748 755 760 754 744 742 747 761 779 781 787 798 786 769 769 763 760 755 735 727 727 721 718 716 714 717 721 725 727 726 729 729
773 771 770 767 766 766 766 767 768 770 773 779 786 784 780 780 777 773 772 771 770 768 776 787 782 778 783 787 785 775 768 775 775 776 786 793 799 800 795 791 785 782 779 778 786 789 789 788 772 761 768 762 747 746 751 748 747 757 759 746 747 763 767 767 780 789 796 803 790 773 770 772 776 770 754 747 740 727 720 715 713 717 719 721 721 721 723 724
774 774 772 768 767 766 766 768 768 770 776 785 790 787 782 781 778 775 774 772 771 774 781 786 783 781 785 788 790 781 776 783 784 784 792 800 805 800 795 794 789 786 783 781 791 793 788 793 784 767 769 767 758 764 780 776 758 752 754 751 754 764 767 767 772 779 788 799 796 783 782 788 780 766 757 753 742 729 721 714 711 713 713 714 715 716 720 722
777 777 775 769 768 768 767 768 770 774 781 785 789 788 784 783 781 777 776 774 775 779 784 787 786 788 789 787 789 786 784 787 789 793 799 804 808 803 797 795 792 789 786 784 792 794 792 799 796 779 771 774 778 783 789 789 778 770 773 776 775 769 764 764 765 767 774 788 792 789 800 800 774 757 756 750 740 731 720 711 708 706 705 707 708 710 715 718
780 781 777 769 768 769 766 770 774 777 782 785 785 786 784 784 784 781 779 778 779 780 782 785 787 790 791 789 791 791 790 793 795 800 807 808 811 810 802 797 794 791 790 792 796 799 800 804 806 799 789 787 790 785 780 780 779 781 787 791 791 786 784 783 779 768 765 776 780 783 803 802 770 758 758 745 739 734 721 713 711 707 705 705 705 706 708 711
783 783 776 769 770 769 768 776 777 776 783 787 787 786 785 785 787 787 784 782 784 782 781 784 787 791 792 792 794 793 794 800 803 807 813 814 813 813 806 797 795 793 795 802 803 798 799 804 810 808 799 793 788 780 778 778 773 778 789 793 791 790 795 802 798 782 773 777 773 772 792 793 765 758 760 747 741 736 725 719 716 713 711 710 709 709 708 708
788 786 775 770 771 768 772 782 783 781 786 787 786 787 787 788 791 791 790 789 790 789 788 790 790 792 795 794 795 797 799 806 811 811 814 815 812 809 804 798 797 796 798 806 806 798 799 809 815 809 796 787 781 775 776 777 779 789 796 794 792 794 795 797 794 786 785 792 790 786 795 788 762 754 759 753 744 737 729 724 721 720 716 713 714 715 714 713
793 789 779 774 772 770 779 792 792 791 792 789 790 792 791 792 794 795 796 797 795 794 795 797 795 795 797 796 798 803 803 809 816 815 814 817 814 808 804 800 800 800 801 806 806 802 808 817 819 817 808 795 788 791 792 790 794 805 806 799 797 797 793 789 786 785 791 800 802 802 802 789 765 755 760 761 753 744 739 733 729 727 724 722 721 720 719 719
793 790 784 779 775 775 785 793 793 795 796 794 797 799 797 797 796 796 799 800 798 796 798 800 798 796 798 799 803 807 805 809 818 819 817 818 815 809 806 804 803 803 803 803 802 803 813 820 820 827 831 825 821 825 824 816 811 810 808 804 801 799 798 797 796 799 803 804 802 803 803 790 768 756 762 766 760 753 751 745 739 736 733 732 731 729 728 727
795 796 792 786 781 783 788 788 789 795 798 799 803 804 804 805 801 797 798 802 802 798 798 801 799 799 802 804 808 813 811 811 816 819 821 821 817 812 808 806 804 804 803 803 802 805 815 821 821 826 834 834 833 832 825 819 817 815 812 808 805 803 801 802 806 808 806 806 805 802 798 791 776 763 765 768 764 762 763 757 749 746 743 742 741 738 736 736
798 801 802 799 795 794 794 792 792 796 797 800 806 809 809 810 809 804 802 805 806 803 803 805 805 807 810 811 813 818 817 815 816 819 821 821 818 814 809 806 806 805 803 805 806 810 822 827 823 824 827 825 825 824 817 814 816 816 814 811 808 804 802 805 810 807 803 807 809 799 794 794 784 770 768 770 768 768 770 766 759 755 752 752 751 747 743 742
801 803 802 802 804 804 804 801 798 800 800 801 807 812 813 814 816 815 811 808 807 807 809 812 812 813 814 813 816 822 821 820 821 820 820 820 818 817 814 810 808 806 805 809 809 814 825 830 824 824 827 823 821 820 816 815 814 812 813 813 808 804 804 806 807 803 801 807 806 795 793 794 783 772 770 770 768 769 772 770 763 758 758 758 757 754 751 750
805 806 803 801 803 806 806 803 802 804 806 806 810 814 816 819 820 819 816 813 813 812 813 817 817 814 814 813 816 823 824 825 826 823 820 820 820 821 820 816 812 808 809 813 815 816 824 827 825 826 828 826 822 819 816 815 814 812 812 813 810 806 803 802 801 797 795 798 795 791 793 790 780 773 771 768 768 768 769 768 764 762 764 764 762 761 760 758
812 814 811 807 805 804 804 805 805 808 810 810 814 817 818 821 822 819 817 817 820 817 814 818 818 814 815 816 817 822 821 821 825 823 821 822 823 822 823 821 818 815 814 816 819 820 825 828 825 826 831 830 824 820 818 817 816 813 810 810 809 807 802 799 799 796 796 798 793 790 794 792 779 772 771 771 771 769 768 769 768 769 772 771 768 768 767 765
815 816 815 813 811 807 807 809 809 812 815 815 818 820 820 821 821 819 818 816 818 819 816 816 817 815 816 817 818 820 818 816 819 819 818 821 823 822 821 819 819 821 821 820 821 822 827 830 826 829 838 836 827 825 824 819 816 815 810 806 806 805 805 804 802 800 802 803 796 793 798 796 785 777 775 776 776 775 776 776 774 773 776 776 774 774 773 772
815 815 813 814 814 811 811 812 812 816 820 819 819 820 820 821 818 818 821 818 814 815 815 814 815 816 818 820 820 818 816 814 815 815 814 816 816 816 817 816 816 820 822 822 823 824 826 830 831 834 842 840 832 829 827 825 825 821 810 804 803 804 806 807 803 800 801 801 799 798 798 793 786 783 782 782 782 782 783 784 783 781 779 778 777 777 778 777
Wind_Speed
25 26 27 27 27 27 26 24 22 21 20 19 18 19 20 22 23 25 24 20 18 19 18 16 14 12 11 11 13 12 11 11 12 7 9 11 9 10 12 15 12 15 19 14 14 12 10 11 10 12 9 5 4 4 6 7 5 4 3 4 5 3 3 4 4 4 4 7 11 10 8 8 6 4 2 3 3 2 4 1 2 6 12 14 19 29 35 35
25 26 27 27 27 27 27 26 24 23 22 20 19 19 20 22 24 25 24 20 19 19 17 15 12 11 10 9 10 10 10 11 11 11 13 10 6 16 15 12 10 15 19 14 15 15 9 8 9 10 6 3 4 5 5 5 6 5 3 4 5 4 4 3 5 5 4 7 12 10 8 6 5 6 4 3 5 5 5 4 7 11 15 17 22 29 32 32
26 27 27 28 28 28 27 27 26 24 23 22 21 20 20 22 23 25 24 20 19 18 16 14 11 10 9 7 7 7 9 8 6 8 5 4 12 20 18 12 9 13 18 16 16 17 11 10 12 9 4 3 4 5 6 5 5 6 4 4 6 6 3 2 6 6 6 9 13 10 6 4 4 5 3 4 6 5 5 6 12 15 19 20 19 25 29 29
26 27 28 28 28 28 28 27 27 26 25 24 23 22 21 21 22 24 24 20 18 17 15 13 11 9 7 4 3 5 6 4 2 4 1 3 12 20 19 14 11 11 13 14 14 15 11 7 8 8 5 4 5 5 7 6 4 3 5 6 6 5 2 3 6 7 9 9 11 11 8 6 3 2 3 8 7 4 5 4 10 19 22 23 20 22 26 26
26 27 28 29 29 29 29 28 27 26 26 24 24 23 22 21 22 23 23 20 17 14 13 12 11 8 4 3 2 4 4 2 2 4 1 3 9 15 18 16 14 12 11 11 12 12 9 4 1 4 5 4 4 4 7 9 6 3 5 9 8 4 3 6 7 9 10 8 11 12 10 7 4 2 3 7 5 3 5 4 7 20 22 23 23 21 23 23
26 27 28 29 29 29 29 29 28 27 26 25 25 24 23 22 21 22 21 20 15 11 12 11 12 9 4 3 2 3 1 1 3 5 2 4 9 12 15 16 15 14 12 13 11 8 6 3 1 3 4 4 6 6 8 9 7 5 6 8 9 6 4 7 9 11 11 10 11 11 9 9 7 5 4 6 4 3 4 5 5 19 22 24 25 21 21 20
26 27 28 29 29 30 30 30 29 28 27 26 25 24 23 22 21 21 20 18 13 10 10 11 11 8 4 2 1 1 1 4 6 7 4 5 10 12 14 16 16 16 15 14 11 8 5 5 5 4 4 5 7 8 8 7 7 7 8 8 9 9 8 11 11 12 12 11 11 11 11 11 8 8 5 6 4 3 4 6 3 18 23 24 22 18 20 20
27 27 28 29 29 29 30 30 30 29 28 27 27 25 23 22 21 20 19 18 14 10 9 12 12 6 4 2 0 1 1 6 8 10 7 7 9 12 15 17 19 18 16 16 14 10 6 6 8 5 4 7 6 7 8 6 7 8 10 10 7 7 11 13 10 12 11 8 10 12 11 10 9 9 7 7 4 3 3 6 4 18 21 20 19 18 19 19
27 27 28 29 30 30 30 30 30 30 29 29 28 27 24 22 21 19 17 17 15 11 9 13 11 4 4 3 0 1 2 4 8 11 9 8 8 12 16 17 21 20 16 17 16 12 7 6 9 7 5 8 6 8 7 4 5 8 11 10 8 6 9 14 11 12 10 8 12 12 9 8 9 10 6 6 6 4 2 4 6 19 19 17 17 16 18 18
28 28 29 30 30 30 30 30 30 30 30 29 29 28 25 22 20 18 17 16 15 11 9 11 9 3 2 2 2 1 2 2 8 11 9 9 9 12 16 17 21 23 16 14 16 13 9 9 8 6 5 6 6 7 6 5 5 7 8 8 10 8 7 16 14 12 9 8 12 12 9 7 4 5 4 4 6 5 2 4 9 17 17 17 16 14 17 18
28 28 29 30 31 31 31 31 31 31 30 30 30 28 26 22 20 17 16 16 15 11 8 9 8 1 1 0 2 3 3 5 9 10 9 10 9 9 14 17 20 24 18 12 15 18 17 13 4 1 3 4 4 6 5 6 6 8 8 6 8 6 5 14 15 13 10 7 10 12 10 5 1 1 4 6 8 6 6 7 10 14 16 16 15 14 14 15
28 29 30 31 31 31 31 32 32 31 31 31 30 28 26 23 19 16 15 16 13 9 7 7 5 1 2 1 4 7 4 3 6 8 11 10 5 3 8 14 18 23 20 11 14 22 22 15 6 3 4 4 4 4 5 5 4 7 6 4 6 4 5 15 16 14 11 7 12 13 8 3 2 3 5 8 9 7 6 4 6 10 14 15 13 12 12 14
28 30 31 31 32 32 32 32 32 32 32 31 31 28 26 22 18 16 16 15 11 6 5 5 3 1 2 1 8 8 6 6 4 5 12 10 7 5 7 12 14 18 20 15 15 22 23 16 9 7 6 5 5 5 6 5 5 7 5 2 3 4 2 13 14 13 10 10 17 13 4 4 4 5 7 9 10 9 7 1 3 2 8 13 12 11 12 15
29 31 32 32 32 32 33 33 33 33 32 32 31 28 25 21 17 17 16 13 9 4 3 3 0 2 2 4 10 8 9 9 7 7 9 10 10 10 11 13 14 16 19 18 16 16 19 15 10 7 6 6 5 5 7 5 3 5 5 3 1 1 2 9 12 12 8 9 17 9 2 6 5 7 11 11 12 13 12 8 5 1 3 9 12 13 13 15
30 32 32 32 32 32 33 33 33 33 33 32 31 28 25 20 17 18 16 10 6 4 3 3 3 4 1 7 10 7 5 6 8 9 9 10 10 9 14 18 17 18 18 18 14 11 13 12 8 5 5 6 3 3 5 3 3 2 2 4 1 2 4 6 12 15 10 8 13 5 2 5 5 9 11 10 12 13 14 11 7 5 5 8 10 13 13 14
31 32 32 32 32 33 33 33 34 33 33 33 30 26 22 19 17 16 12 6 4 4 3 1 4 4 0 5 8 6 3 5 9 11 11 11 10 7 12 18 17 17 17 16 14 11 12 9 5 5 5 4 3 1 3 4 4 3 1 3 2 3 3 2 9 15 14 11 11 7 3 4 5 9 10 10 14 14 14 12 10 10 8 10 11 12 12 13
32 32 32 32 32 33 33 33 34 33 33 31 28 24 20 16 14 11 4 1 2 3 3 0 1 2 3 6 7 5 6 8 7 8 10 9 7 6 6 10 10 13 13 12 12 10 7 5 3 4 4 2 1 2 0 3 3 4 1 3 3 4 4 3 5 10 15 16 13 10 5 5 7 12 13 12 15 15 15 14 13 12 10 13 12 13 13 13
32 32 32 32 32 33 33 33 33 33 32 28 26 22 16 11 8 3 4 6 4 2 1 1 0 1 2 6 4 4 5 5 3 3 8 7 6 7 5 4 6 8 7 5 7 6 3 2 1 1 2 3 2 3 3 4 5 3 3 2 4 3 3 6 3 6 15 16 14 11 6 7 10 14 15 14 13 13 16 17 15 15 16 16 13 14 13 14
32 31 32 32 32 33 33 33 32 32 30 26 23 18 9 8 4 4 7 7 4 1 1 2 2 1 3 6 5 5 6 3 2 1 5 5 6 7 5 4 5 7 5 2 3 3 3 1 0 1 3 5 5 4 5 5 5 4 4 2 3 5 5 7 4 6 16 13 12 13 8 9 13 14 16 15 14 14 16 16 14 15 16 16 14 13 14 14
32 32 32 32 33 33 33 33 31 31 28 24 24 16 6 6 4 2 1 3 3 4 5 4 5 3 7 8 6 5 5 4 2 3 6 7 6 5 2 1 3 5 4 4 3 3 4 3 3 5 5 6 6 5 7 6 7 6 5 5 5 6 7 8 5 8 15 11 11 14 10 12 15 16 17 16 15 15 15 15 14 14 14 14 15 14 15 15
33 32 33 33 33 33 33 32 30 27 21 19 19 10 1 3 2 2 5 3 6 7 8 9 8 8 10 14 13 5 1 2 2 3 8 8 7 5 2 2 4 4 4 5 4 1 4 4 6 7 7 7 6 6 7 8 9 7 6 6 7 7 8 10 9 7 13 11 10 13 11 13 17 16 16 17 17 16 17 17 16 17 15 13 15 16 16 14
33 33 34 33 32 33 32 31 28 19 15 17 14 4 3 5 2 2 4 4 8 6 7 10 8 9 13 18 17 4 3 1 4 6 6 6 6 5 2 2 4 4 4 5 3 2 4 5 7 8 7 7 7 7 8 9 9 7 5 5 7 7 7 10 9 5 9 9 9 14 14 12 15 16 16 18 18 16 18 18 16 17 16 14 15 15 15 15
32 33 34 32 32 32 30 30 21 11 15 19 13 6 7 7 6 7 5 2 7 7 5 6 5 6 8 8 6 2 4 1 3 5 5 6 4 4 4 4 5 4 4 6 4 4 4 5 9 10 7 8 8 9 9 8 7 6 5 5 7 8 6 5 5 2 2 5 11 15 10 6 9 11 12 15 15 13 15 15 13 14 15 16 17 15 16 17
32 33 32 31 32 29 29 27 13 10 20 18 11 11 10 9 11 10 4 1 5 6 5 6 5 4 4 2 1 3 3 2 2 4 4 6 3 3 4 4 6 4 4 7 7 6 5 7 9 10 9 9 8 9 8 6 5 5 7 7 8 10 8 7 6 6 7 2 13 14 4 1 6 10 10 10 10 11 12 12 11 12 13 14 15 15 16 18
33 32 30 31 30 28 29 19 8 16 22 10 9 18 16 13 14 11 4 1 3 5 4 4 3 2 1 1 3 3 1 1 4 4 4 5 3 3 2 2 4 5 6 9 8 5 7 10 8 7 9 9 8 8 8 7 5 5 7 11 13 13 13 10 8 5 6 4 8 12 5 2 6 9 10 8 9 11 11 12 13 13 12 12 13 14 16 17
32 31 30 30 29 29 24 7 8 22 16 4 11 20 17 15 16 11 4 2 3 3 2 0 0 1 2 0 2 3 4 3 5 2 3 4 3 3 1 2 0 4 6 6 6 3 6 10 8 8 9 10 9 8 8 8 5 5 7 10 13 12 11 10 7 3 1 2 5 6 4 3 3 7 10 11 13 13 11 12 14 13 13 13 13 14 15 16
32 30 30 28 27 27 16 5 14 18 6 5 15 18 15 15 16 11 4 3 3 1 2 1 2 0 1 1 2 4 2 4 5 2 2 4 2 3 1 2 1 2 2 1 2 3 6 10 10 9 9 9 8 7 9 9 6 6 7 8 9 8 8 8 6 4 4 3 2 3 4 4 3 9 12 12 13 12 12 13 14 14 14 15 14 14 15 16
31 30 30 27 24 20 10 9 14 10 4 10 15 15 16 17 14 7 3 2 2 1 1 1 1 2 2 0 2 3 3 3 1 3 2 4 3 4 1 4 2 3 3 2 2 5 3 5 8 8 7 6 7 9 11 9 6 7 9 7 7 7 6 3 3 4 3 1 2 2 6 4 4 7 8 11 12 13 15 17 17 17 17 17 16 16 15 16
31 31 29 26 22 12 5 9 10 6 8 12 12 15 19 17 9 3 3 2 1 1 1 0 1 2 2 1 1 1 1 1 2 4 2 2 1 3 2 5 3 2 4 2 3 6 3 3 5 4 4 5 7 11 13 9 7 8 10 9 6 5 4 2 2 2 2 2 3 4 5 4 3 3 6 8 10 13 15 16 18 18 18 17 16 17 16 14
31 30 27 25 20 9 7 12 10 4 9 11 13 18 18 10 4 4 2 1 2 1 1 1 2 1 1 1 1 2 1 1 3 1 1 0 2 4 0 2 1 1 3 1 3 6 4 5 5 2 4 5 6 8 11 12 10 6 6 8 5 4 3 3 3 3 3 1 4 6 5 6 2 4 7 9 14 18 16 14 15 15 16 16 15 16 16 15
30 27 24 22 18 10 7 8 5 3 7 12 16 16 10 4 3 3 2 1 1 2 2 2 1 1 2 2 1 1 1 1 2 2 2 3 6 7 4 4 4 3 4 4 4 6 4 2 3 3 3 3 3 3 4 8 8 2 1 2 2 4 4 4 4 4 2 4 6 4 3 6 4 4 9 14 18 21 17 15 17 18 18 17 16 15 16 16
28 24 18 14 12 9 7 4 3 4 8 13 15 9 4 4 2 1 1 2 1 1 2 3 1 0 1 2 1 1 2 1 2 3 2 4 6 6 6 5 3 2 3 3 3 6 6 2 3 5 2 4 4 3 3 2 2 4 2 2 2 2 3 2 3 2 1 4 7 2 4 3 4 5 12 17 18 17 15 14 17 20 20 17 16 16 15 15
24 20 12 6 8 10 10 7 6 6 10 15 11 4 4 4 2 2 3 3 0 1 1 2 2 2 2 2 2 1 3 2 2 2 3 5 6 6 8 9 7 3 1 1 3 5 5 4 5 4 3 6 7 3 2 3 1 4 4 3 4 3 2 1 2 2 2 5 7 2 4 1 4 4 11 18 18 18 16 14 15 18 20 19 18 17 15 16
21 16 9 6 9 11 10 8 7 7 11 13 6 3 4 4 2 4 4 4 3 3 3 3 4 4 4 2 1 2 3 2 4 6 6 6 5 5 8 11 12 6 1 3 3 2 3 4 4 5 4 6 7 5 3 3 1 2 4 5 4 4 4 3 2 1 2 4 6 4 3 2 3 4 10 17 19 18 15 15 15 15 17 17 16 15 15 16
20 14 9 9 11 10 9 7 6 7 7 7 5 4 5 3 3 4 4 5 5 6 7 5 4 3 3 2 2 3 3 2 5 9 8 8 6 6 6 8 11 8 3 4 2 1 2 4 4 4 5 4 7 9 6 1 1 3 1 6 2 3 5 2 2 4 2 1 4 4 1 4 4 5 7 11 14 15 15 16 15 15 15 14 13 14 15 15
20 15 8 8 9 8 5 2 4 5 1 4 4 4 4 2 2 2 3 5 4 5 7 6 5 3 2 3 3 4 3 3 5 5 6 7 8 9 6 5 9 9 5 3 1 2 2 4 6 8 4 3 10 11 5 3 2 2 2 2 5 4 6 3 2 1 4 2 3 2 1 4 4 6 8 6 10 12 15 17 16 17 16 15 14 15 15 14
20 16 8 7 6 2 2 3 4 5 3 4 5 5 2 1 2 3 4 5 5 5 5 5 5 4 3 4 5 5 4 4 4 3 2 4 6 8 7 5 9 11 7 2 1 1 1 4 5 6 4 8 15 11 5 9 6 3 1 4 4 1 4 3 0 2 4 2 3 2 2 4 5 4 8 11 11 10 13 18 17 16 16 16 16 16 17 17
16 12 8 5 3 5 5 5 7 7 4 4 5 5 2 2 3 5 6 6 4 5 6 3 4 5 4 5 5 7 5 4 5 4 3 4 3 5 7 5 7 12 10 6 3 1 2 3 4 6 8 10 14 9 7 11 11 6 3 4 1 1 0 1 1 2 1 2 3 3 2 1 4 4 9 14 14 12 10 15 15 14 16 17 17 18 19 18
10 6 4 3 3 5 4 6 6 4 4 4 5 4 2 4 6 8 10 8 4 5 5 3 4 5 5 4 3 6 8 7 5 4 4 4 1 4 8 6 5 9 10 8 5 3 3 3 4 4 8 7 7 7 5 9 12 10 7 5 3 1 3 1 2 4 2 3 3 3 2 2 3 5 10 13 15 16 9 12 14 15 17 17 16 16 17 16
5 3 2 3 3 2 2 5 3 4 4 3 3 3 4 5 7 11 13 11 6 4 4 5 5 5 4 5 5 5 6 7 7 6 5 4 1 3 9 7 5 6 7 9 8 4 3 4 3 5 7 4 2 4 5 5 8 8 8 7 7 5 1 1 1 2 3 4 3 1 3 2 4 6 10 13 17 18 9 6 11 14 18 18 17 16 15 15
4 3 2 2 2 1 2 2 3 3 2 3 3 3 5 5 6 10 13 12 8 4 4 5 6 5 4 5 6 5 5 7 7 7 5 6 4 4 9 9 6 5 4 6 8 5 3 2 2 5 5 2 1 2 5 6 3 2 5 7 7 6 4 2 2 2 2 3 4 4 4 2 4 6 9 12 14 15 12 7 2 3 8 12 14 16 18 17
3 2 3 6 4 4 4 4 2 1 3 4 5 4 6 6 6 9 10 10 8 5 5 5 6 6 5 5 5 4 5 6 6 6 6 7 8 5 8 10 8 5 4 3 4 5 3 1 2 4 4 5 6 6 3 6 5 7 8 8 6 6 5 2 2 4 2 2 3 2 4 1 2 5 8 12 13 14 16 16 13 10 5 1 1 6 12 16
2 2 7 15 10 2 6 5 3 4 5 5 7 7 7 6 5 7 8 9 7 5 5 6 6 7 6 7 7 6 5 5 6 6 6 6 8 6 8 11 9 6 4 3 4 6 4 2 3 5 4 4 5 4 4 10 10 6 6 9 7 7 7 4 4 3 2 3 4 3 3 2 3 5 8 12 15 16 18 18 17 15 11 7 6 4 2 7
2 4 6 18 20 11 7 4 3 5 5 5 7 7 6 6 6 7 8 8 6 4 4 6 6 6 5 7 8 8 6 4 6 7 5 4 4 6 9 10 9 7 5 4 4 4 3 2 3 4 5 4 4 3 4 8 9 5 4 8 8 10 13 8 4 2 3 3 4 3 1 3 7 6 7 9 15 18 19 19 18 18 17 13 10 10 8 4
3 1 4 11 20 14 5 2 3 4 4 6 7 6 5 4 5 7 7 7 6 4 3 5 6 6 6 7 7 8 9 6 4 4 4 4 3 4 8 7 6 5 6 9 9 4 2 2 2 3 2 3 3 3 4 6 7 4 5 9 10 12 14 9 4 3 3 4 5 2 1 5 10 10 7 6 11 16 17 17 17 17 19 17 15 14 14 12
2 3 3 6 10 8 3 2 4 4 4 4 5 6 6 4 5 7 7 6 6 7 5 5 6 6 7 8 6 7 9 8 5 3 4 4 2 3 7 7 5 6 9 14 12 4 2 3 2 3 4 3 4 3 5 6 7 7 8 11 10 10 10 7 3 2 2 4 3 2 3 7 12 12 9 6 9 11 13 16 16 16 18 18 15 15 16 15
2 2 3 3 3 5 4 5 5 5 5 5 4 5 7 8 7 7 7 5 5 7 5 6 9 7 6 6 5 4 6 7 7 4 3 2 1 3 7 6 6 9 11 11 8 4 3 3 3 1 1 3 4 5 7 9 8 8 8 10 10 9 8 7 5 5 4 4 2 5 6 8 9 9 8 6 6 7 8 13 14 14 16 16 14 15 18 17
2 1 2 1 1 3 4 4 6 8 8 7 5 5 8 10 8 6 6 5 5 7 5 5 9 9 6 5 4 3 5 5 5 4 2 2 3 4 6 5 5 9 9 6 4 4 4 1 2 4 5 6 6 7 9 9 9 8 7 7 9 9 8 7 7 9 7 3 4 6 8 7 7 6 7 6 4 5 5 9 12 14 15 15 15 17 18 17
3 1 4 2 2 2 3 5 8 9 9 6 5 6 7 8 7 5 4 4 5 6 4 4 8 9 8 6 5 4 4 3 3 4 4 5 5 4 4 4 4 6 7 4 3 3 3 1 3 5 6 6 7 8 9 10 10 10 8 6 6 8 9 7 8 10 8 5 5 3 7 8 6 5 7 6 4 4 5 7 12 14 14 14 16 16 16 16
3 1 4 3 3 3 3 5 6 7 7 5 4 5 5 5 6 4 3 3 3 4 4 5 7 8 7 7 6 3 2 3 1 2 3 6 5 3 3 2 3 6 6 3 2 3 3 2 4 5 4 5 5 7 9 10 11 13 12 8 5 5 7 7 7 8 6 4 5 5 6 6 6 5 6 7 6 6 8 10 11 12 11 13 15 15 15 15
4 2 3 1 2 5 4 3 4 5 4 4 3 3 3 4 4 3 2 2 1 0 2 3 6 6 5 6 5 2 2 3 2 2 1 2 1 1 1 1 1 3 4 2 1 2 2 1 3 4 3 4 5 7 10 11 11 13 12 9 5 3 4 6 6 6 6 6 7 5 2 2 6 6 6 8 9 10 12 10 9 10 10 12 14 14 14 15
8 5 5 3 2 5 3 2 4 5 4 4 3 2 3 4 2 3 3 3 2 2 4 3 5 3 3 5 4 1 1 2 1 3 3 2 3 3 3 4 1 2 2 1 1 1 3 2 1 2 1 3 5 7 8 8 8 8 7 5 6 6 7 7 5 4 5 5 4 2 0 2 4 6 6 9 10 11 11 10 9 9 9 11 12 12 12 13
Wind_Direction
3 4 4 5 6 7 7 5 3 359 357 356 354 353 351 351 349 349 347 344 343 337 330 321 311 310 313 316 312 309 308 302 303 275 236 269 252 194 166 167 172 162 159 159 169 173 184 199 212 206 199 198 211 236 225 227 229 229 215 219 254 236 223 220 186 165 139 135 130 139 161 156 164 168 132 143 122 87 108 99 244 124 123 133 136 141 142 147
1 1 1 2 3 4 5 4 1 357 355 353 352 350 349 350 348 349 348 344 343 339 336 330 321 318 320 320 312 304 310 308 298 272 249 265 211 178 166 156 175 177 171 171 179 178 174 188 198 199 192 190 216 216 217 214 208 217 204 209 239 224 222 208 163 144 139 143 132 141 165 153 145 140 148 168 126 123 137 177 177 134 125 133 141 143 144 150
358 359 358 358 359 360 1 1 360 356 353 351 349 348 348 348 347 348 347 344 342 341 340 339 335 329 330 327 318 308 311 321 291 270 264 228 181 180 176 164 173 182 184 185 186 189 186 186 188 186 182 212 231 222 223 216 208 213 199 223 241 229 244 145 152 137 138 147 130 133 150 132 138 136 146 145 128 161 183 184 170 144 138 147 151 148 149 152
356 356 355 355 355 356 357 357 357 355 352 349 347 346 346 347 348 348 346 344 343 344 348 349 346 340 344 348 342 324 315 345 284 257 56 151 175 177 179 175 178 186 191 192 192 197 204 207 197 191 187 216 240 234 238 233 225 210 196 226 238 219 216 163 156 125 136 147 126 131 139 127 140 136 152 138 129 201 225 217 166 149 149 153 155 154 153 153
354 354 353 352 352 353 353 353 354 353 351 348 345 344 343 346 348 348 345 345 344 348 358 3 2 1 12 27 8 335 337 46 260 240 111 147 174 177 178 175 181 191 195 199 200 200 215 253 244 210 204 220 237 231 240 233 229 253 231 233 238 214 159 170 159 128 142 141 120 133 138 127 129 146 158 134 124 213 226 279 169 154 154 155 157 157 155 154
351 352 351 350 350 350 350 350 350 350 349 347 344 341 340 342 345 349 346 345 347 348 2 12 10 13 21 38 2 332 48 93 257 227 204 147 164 175 177 177 182 193 201 201 198 191 201 207 139 216 212 220 227 225 239 231 220 247 257 244 236 224 172 166 157 137 144 144 138 143 137 130 138 146 149 144 155 212 223 292 182 158 155 155 157 157 156 156
349 350 350 348 348 348 347 347 347 347 347 345 343 339 336 336 341 347 346 345 345 340 350 355 353 358 357 18 26 18 94 267 248 207 206 153 160 170 174 183 186 193 198 191 185 180 178 175 186 212 216 225 228 232 244 242 230 238 255 255 233 213 186 173 159 145 153 156 147 143 134 138 149 141 150 181 184 208 231 291 208 159 155 156 159 158 156 157
347 349 349 348 347 346 345 344 344 344 344 343 341 338 334 332 335 342 346 345 342 331 331 336 335 332 329 347 61 3 252 248 213 182 182 157 162 171 173 184 191 192 189 186 185 179 169 180 206 210 218 230 220 230 239 248 252 241 247 256 246 213 178 165 151 145 156 150 135 138 139 148 153 139 156 194 186 179 220 294 211 158 157 160 161 158 152 156
346 348 348 347 345 345 344 342 342 341 340 340 338 337 334 331 332 337 342 341 340 331 320 332 332 310 297 291 196 319 257 237 185 169 168 160 164 176 180 186 192 191 186 192 190 180 175 186 207 205 225 242 227 235 234 227 250 240 241 248 258 249 160 151 149 149 154 148 140 138 142 154 151 136 146 194 183 156 176 287 190 160 160 164 163 159 154 158
346 347 348 346 345 343 342 340 340 339 338 337 335 334 333 331 331 334 336 335 336 327 321 338 335 305 278 264 111 155 224 173 173 172 163 164 164 175 190 193 192 189 184 193 191 187 197 195 198 203 245 261 236 242 238 216 247 259 258 255 256 260 160 149 148 147 150 152 146 136 143 154 144 133 141 191 165 130 164 227 179 162 164 166 164 161 158 160
345 348 348 346 344 342 341 340 338 337 335 333 332 331 330 330 330 331 332 330 328 322 323 340 337 318 177 153 130 208 206 152 177 185 175 177 176 175 192 197 192 188 182 184 195 201 210 215 219 317 269 270 247 254 255 235 256 270 269 276 263 267 144 147 142 145 152 148 143 128 124 127 49 166 160 161 142 134 181 194 178 168 167 167 164 161 161 163
345 348 348 346 344 341 340 339 337 335 333 331 330 328 327 328 328 329 328 325 324 317 319 344 353 92 109 11 216 219 222 184 193 195 184 184 204 199 187 194 192 190 188 181 198 207 214 226 238 247 252 286 291 268 268 265 293 288 266 261 273 317 120 150 147 155 160 136 140 124 103 144 201 172 148 143 144 154 164 174 193 177 168 168 163 158 163 168
344 347 346 344 342 341 340 338 336 334 331 329 327 325 325 324 325 325 323 322 323 316 314 351 7 134 86 283 233 241 281 273 260 220 201 203 238 235 189 191 194 198 198 193 202 210 215 225 227 231 249 273 285 280 293 310 329 313 294 228 259 349 130 163 154 160 157 144 155 139 100 210 202 161 149 145 154 148 124 138 257 203 172 173 164 160 167 170
344 346 344 342 341 340 339 338 337 334 331 328 324 323 322 321 322 320 316 314 315 306 288 325 323 153 107 259 262 290 308 281 266 249 217 207 220 221 202 195 199 206 204 200 207 212 217 233 242 249 258 242 256 294 306 328 333 312 315 295 189 38 229 172 157 157 144 160 171 145 97 206 197 167 156 152 161 147 143 183 215 186 194 185 168 165 170 172
345 344 343 342 341 340 339 338 336 334 332 328 323 322 321 321 319 311 308 302 297 269 260 302 208 170 58 278 282 314 312 263 240 229 213 203 205 209 204 199 202 208 204 202 213 225 235 252 254 248 256 241 256 319 313 333 330 313 321 308 296 171 248 176 162 165 151 174 189 159 103 193 193 167 151 150 158 148 156 181 187 175 207 209 180 168 172 175
343 343 342 342 341 340 339 338 336 334 333 328 324 323 321 320 312 302 299 290 269 229 231 326 196 187 58 282 295 317 259 219 225 218 208 211 208 207 200 192 196 203 201 203 217 237 249 260 255 238 241 238 245 284 340 344 323 334 163 259 269 175 254 210 168 175 157 158 202 221 152 157 185 165 147 151 160 153 160 175 184 182 201 217 191 172 175 175
341 342 343 342 341 341 339 339 337 336 333 328 327 327 326 321 303 290 291 233 189 201 211 129 172 196 261 284 301 298 245 214 221 210 195 201 207 216 198 174 179 194 198 205 215 229 242 247 249 247 217 189 199 154 23 300 278 313 236 231 263 188 216 235 188 182 161 156 192 218 181 164 178 160 151 161 165 158 163 176 186 182 198 216 193 175 179 176
340 342 344 343 341 340 340 340 339 338 334 328 330 332 335 337 312 282 115 120 109 111 225 277 23 94 261 282 280 268 265 212 194 181 185 195 202 212 215 186 171 173 185 209 214 214 210 226 251 261 195 190 219 158 167 227 212 244 247 239 289 268 231 232 229 174 166 166 182 191 183 176 168 158 159 167 165 164 171 177 185 187 195 205 190 177 180 179
340 343 345 343 342 340 340 340 341 342 334 329 338 344 356 13 21 107 118 128 114 60 290 231 171 106 302 280 259 274 290 220 191 197 190 209 210 205 216 218 182 154 155 189 219 211 184 219 275 175 205 208 220 183 173 221 222 230 253 243 258 275 261 240 245 178 171 173 183 183 176 170 167 166 168 170 169 173 178 178 186 191 189 189 185 181 180 180
341 343 345 344 342 341 340 341 343 343 337 337 347 355 18 22 27 62 88 162 196 235 256 243 200 257 299 289 292 307 292 253 233 215 211 223 202 188 208 166 151 154 148 161 201 216 175 186 227 209 214 211 219 204 188 229 257 268 285 288 271 270 270 257 252 186 171 175 197 188 168 167 173 174 173 172 173 175 179 185 192 191 182 179 182 183 181 181
341 344 345 344 342 341 340 340 342 343 343 347 351 1 17 346 8 324 321 277 249 229 241 255 232 246 265 265 277 301 330 294 314 255 238 225 164 147 278 67 125 175 180 174 188 201 170 191 225 221 216 211 218 215 208 231 248 261 268 277 281 269 268 266 262 209 178 183 201 183 167 176 178 177 176 172 175 183 185 188 191 187 181 178 179 181 182 181
342 344 344 344 342 339 339 340 342 347 356 355 353 6 273 307 47 3 335 306 285 256 245 263 251 251 255 254 260 255 95 350 316 297 249 202 143 150 237 106 133 199 201 188 185 168 190 218 228 226 217 214 227 225 221 231 235 244 247 257 270 260 274 274 263 228 187 188 194 184 178 184 181 178 180 177 180 188 190 190 188 181 179 180 179 178 178 179
342 343 343 344 340 337 337 338 341 353 358 346 328 312 312 329 14 3 351 302 290 284 257 259 256 259 255 249 249 138 105 178 286 285 206 157 140 167 168 147 178 204 189 192 186 160 193 236 225 220 214 209 225 230 224 229 233 233 231 242 256 252 266 270 263 302 258 197 184 184 179 168 172 179 187 187 186 186 189 193 189 182 180 181 181 177 175 178
342 342 343 342 338 335 334 336 344 357 347 337 322 334 350 356 5 5 8 204 284 284 248 233 240 255 246 215 144 112 114 187 233 265 185 139 131 170 160 169 187 198 197 199 198 184 211 241 224 214 219 214 220 232 227 224 239 236 224 227 247 255 245 239 267 307 324 261 171 161 118 94 175 186 194 191 189 190 188 187 190 193 187 180 181 179 177 178
342 342 342 341 339 333 331 335 359 352 342 339 353 356 2 5 6 16 38 65 297 285 248 233 232 243 275 132 157 150 99 244 242 235 177 132 130 148 160 186 177 205 216 202 200 205 229 241 228 206 219 225 223 233 226 213 230 246 234 224 231 248 248 248 269 293 349 4 154 139 108 230 205 194 194 184 189 196 191 186 188 194 192 183 181 182 182 180
342 342 341 341 338 333 334 343 350 342 335 338 3 356 355 356 357 7 41 56 321 272 197 266 117 182 302 170 152 81 54 296 269 237 145 130 132 122 145 294 213 206 210 198 199 198 224 235 228 204 209 218 224 237 230 206 212 247 238 223 228 242 251 258 271 262 358 87 154 147 145 187 214 211 203 189 190 195 192 192 190 191 193 190 185 183 182 181
341 341 340 338 339 340 338 307 329 336 323 335 352 352 350 344 343 355 43 59 333 269 160 323 343 53 297 232 111 75 89 264 295 337 147 154 138 90 126 269 320 252 259 113 200 211 213 226 229 216 206 209 216 234 230 199 183 242 242 229 242 254 256 260 269 252 217 167 153 169 146 128 200 217 206 188 187 194 196 198 195 194 196 194 191 187 183 181
340 339 338 334 337 340 320 298 323 329 323 340 344 346 343 335 336 359 88 82 348 337 169 290 318 298 290 357 101 124 199 223 292 297 230 157 143 81 113 241 216 255 288 91 199 258 237 219 228 222 210 208 210 220 227 202 182 243 253 243 249 256 258 271 291 276 233 181 303 202 133 124 230 222 191 179 186 197 202 202 200 198 197 195 194 191 186 183
337 337 337 331 332 339 315 306 307 302 337 348 348 340 332 331 345 52 99 79 65 332 283 325 335 283 292 35 87 201 234 153 174 258 286 146 176 97 158 228 192 252 284 158 205 265 272 252 246 218 200 211 212 217 220 206 201 235 246 249 258 260 267 68 75 344 23 134 231 217 142 125 247 234 163 173 198 206 206 204 203 201 197 196 196 192 188 185
334 335 337 330 328 334 311 299 286 305 352 349 339 331 325 333 32 76 38 95 133 298 284 340 328 274 110 66 294 257 205 211 211 241 2 13 8 43 184 255 84 49 311 298 253 263 261 267 266 213 198 217 215 218 214 205 210 229 243 252 277 312 340 42 70 61 50 290 238 222 182 138 179 233 179 183 204 206 205 201 202 203 200 199 198 194 190 187
333 336 337 327 320 313 296 292 289 326 339 336 334 332 335 8 78 89 50 143 205 313 296 271 295 250 166 163 237 256 181 253 316 22 358 12 31 18 359 358 21 34 2 344 305 304 318 296 258 240 243 256 247 255 230 206 196 150 28 262 272 315 352 13 356 39 85 269 252 220 161 136 160 227 201 203 211 207 203 196 195 199 200 200 199 194 191 189
336 340 338 324 309 284 258 275 335 326 329 341 343 348 36 55 50 83 25 315 280 301 293 264 231 160 200 168 151 205 134 48 11 51 44 58 63 42 39 27 348 24 11 335 335 339 331 285 261 261 284 25 360 327 336 314 146 125 96 68 101 310 345 353 315 314 190 253 250 209 87 133 208 223 204 208 217 216 210 201 196 197 197 197 199 196 192 189
343 346 342 322 300 280 264 284 320 324 335 346 355 27 81 76 38 356 347 344 344 185 302 301 320 33 68 63 52 50 67 39 349 42 68 71 75 59 47 31 14 57 138 329 18 360 332 319 335 333 349 17 15 7 313 302 61 148 170 124 126 126 75 250 272 292 263 272 269 283 72 168 270 257 207 205 214 216 213 209 202 199 196 194 195 194 192 191
350 351 338 292 281 282 281 288 298 304 326 347 16 57 59 74 18 353 9 359 349 339 340 336 334 11 56 57 69 51 44 19 9 40 57 51 45 35 34 26 16 19 98 58 44 21 358 315 348 23 329 327 1 2 272 232 143 192 181 132 133 151 141 190 199 181 248 282 301 339 51 191 232 245 206 200 212 214 207 208 205 201 199 194 192 191 191 194
353 348 328 286 279 287 289 282 280 287 318 3 47 62 58 60 330 349 6 335 338 343 334 339 353 23 28 8 60 53 39 42 38 53 66 59 45 28 26 18 8 6 35 53 15 4 18 263 286 353 296 303 357 336 306 272 228 272 181 112 142 192 152 156 186 177 170 334 316 330 293 218 218 263 241 203 212 215 208 208 201 200 198 187 189 192 191 194
353 350 334 291 295 301 283 251 246 251 326 50 58 62 76 74 326 341 349 322 326 332 334 358 20 24 356 360 23 17 30 58 54 68 82 72 52 28 24 17 4 8 30 60 14 12 16 269 305 329 295 24 358 323 323 10 277 276 51 140 223 199 132 117 268 244 84 85 283 283 272 296 304 300 298 263 230 218 210 212 204 198 192 181 188 194 190 192
353 352 334 304 326 349 130 125 180 180 109 69 71 67 71 46 331 336 358 336 320 342 18 36 14 359 20 33 4 349 24 42 26 49 71 63 40 7 5 13 7 8 15 67 119 21 345 269 304 346 350 358 345 332 19 27 20 54 2 250 258 346 92 107 245 359 59 114 277 283 187 304 322 297 319 321 289 248 214 212 208 195 184 183 192 192 191 193
345 344 322 310 30 76 93 117 157 150 92 44 66 65 41 12 355 356 10 350 327 15 47 52 8 11 42 48 358 346 27 37 6 32 52 45 33 353 357 2 4 9 12 39 69 316 334 293 300 31 27 340 339 6 26 2 10 34 317 282 359 47 132 49 132 159 106 144 268 288 178 356 325 292 328 337 318 295 245 215 206 189 182 189 194 192 192 191
346 352 333 339 74 70 88 140 151 107 66 47 59 46 16 32 23 17 14 1 360 36 38 23 20 33 40 53 21 357 31 47 27 46 57 38 17 335 358 353 343 7 17 43 49 313 5 15 287 8 27 343 337 27 27 338 349 5 359 360 10 195 186 184 168 168 147 158 225 292 42 20 307 304 329 348 347 332 293 219 204 188 184 191 193 191 191 187
7 21 320 342 68 58 95 135 98 57 70 68 76 49 25 35 24 21 20 15 21 30 30 31 31 36 27 36 46 16 30 47 42 58 54 31 47 349 1 356 332 354 19 44 44 2 19 45 289 317 4 15 26 31 19 341 337 351 6 11 356 340 334 191 196 170 136 149 197 142 84 288 302 333 339 360 4 347 329 217 211 199 189 192 190 186 186 186
22 45 283 339 56 306 358 66 42 75 98 43 66 71 47 45 23 21 19 16 24 20 29 53 47 42 23 27 40 22 30 51 48 62 57 30 51 20 357 354 342 348 11 34 35 17 8 52 318 319 339 16 74 351 332 320 314 51 38 16 6 1 1 349 292 289 109 136 198 161 135 276 333 353 339 5 13 352 0 35 11 231 196 197 194 188 184 184
39 65 309 344 317 278 37 53 327 71 90 53 51 45 45 50 29 25 18 14 24 14 12 43 43 39 32 31 45 32 44 61 46 62 73 44 46 31 356 359 0 12 40 36 6 345 351 60 344 303 270 263 263 260 336 13 35 74 53 14 4 13 14 11 289 297 354 352 274 150 121 237 342 18 350 3 14 3 9 28 36 28 13 346 181 197 195 190
45 293 330 358 351 314 53 45 340 35 70 75 65 46 41 45 32 34 29 17 18 9 15 33 30 36 35 28 40 37 37 57 49 60 85 57 39 24 7 8 6 15 42 32 340 336 353 29 346 311 280 270 257 225 83 51 46 52 26 2 3 2 349 314 258 272 28 18 334 14 91 230 300 19 18 1 4 13 15 19 32 35 24 23 40 29 264 215
353 258 315 14 29 48 60 39 15 52 72 80 74 62 50 42 33 43 41 22 9 2 28 37 29 38 39 34 50 45 34 61 62 54 66 60 28 10 9 12 12 21 34 20 359 348 357 31 27 355 332 342 19 23 13 22 26 24 345 346 354 351 346 333 301 347 53 42 10 14 87 266 297 345 34 12 1 12 17 17 28 36 33 33 38 37 27 17
357 261 264 8 34 51 70 54 53 70 73 77 75 66 60 48 35 46 49 29 10 3 31 39 31 40 37 38 56 47 42 63 75 59 57 46 24 6 2 2 15 38 43 31 25 27 42 40 75 82 26 322 353 356 321 326 342 338 330 342 348 351 354 347 337 23 24 358 16 37 264 304 314 334 20 34 17 12 5 11 29 36 36 36 35 39 42 41
29 31 311 336 17 38 48 32 57 67 55 74 76 51 48 52 33 34 44 36 12 11 33 37 27 35 34 34 48 44 45 56 60 72 69 34 8 350 346 350 22 51 50 39 31 34 77 42 59 129 155 211 234 252 273 289 305 314 328 337 336 341 351 350 350 20 339 341 5 247 278 332 329 333 357 27 44 31 360 1 25 36 35 33 30 37 46 45
77 38 12 336 346 14 13 12 40 50 42 64 73 38 45 51 35 21 24 27 16 17 34 38 30 33 33 38 51 30 27 48 48 46 66 50 25 348 342 354 37 48 50 47 40 56 75 20 349 354 232 243 259 287 305 311 309 310 318 325 323 328 346 353 338 318 323 353 321 278 319 345 321 323 356 18 53 64 22 9 21 33 34 32 25 29 39 42
50 32 348 334 21 22 17 24 47 50 42 55 65 48 51 48 40 31 12 4 20 24 29 35 29 33 36 48 78 42 10 38 37 8 6 33 27 6 348 348 29 41 49 48 37 72 96 231 315 352 336 325 332 327 322 319 312 312 322 324 320 324 336 339 316 305 310 295 250 289 336 333 303 326 7 27 72 93 66 34 30 30 29 28 26 26 29 32
28 12 326 348 58 51 44 48 60 56 40 45 60 49 53 50 41 35 11 2 13 14 31 49 24 22 33 45 73 60 30 47 13 337 4 14 8 19 3 340 354 20 40 46 20 60 94 292 339 358 337 328 331 321 321 328 326 324 327 331 329 322 320 317 304 300 298 266 249 322 347 322 306 342 10 29 63 92 91 64 45 36 26 25 29 25 23 25
32 10 326 350 14 18 41 41 57 67 41 32 54 38 43 59 40 20 19 36 23 349 12 51 23 6 26 52 72 90 118 134 153 313 19 24 2 9 13 347 339 349 2 31 22 42 72 328 341 14 348 322 327 332 333 336 331 320 316 322 336 317 307 309 308 313 326 316 307 338 349 323 317 345 22 35 34 43 58 58 55 48 31 29 36 27 16 17
26 335 340 38 18 9 41 41 48 78 45 18 52 42 36 56 38 26 17 10 105 330 335 52 43 11 20 48 65 116 173 151 167 259 162 83 318 258 252 307 31 4 349 9 36 52 89 296 343 37 11 312 334 349 337 333 330 318 309 311 321 331 344 339 327 337 354 333 316 328 356 322 319 337 27 46 35 37 43 39 48 55 39 35 40 31 17 11
18 357 3 73 80 9 36 61 42 67 52 23 50 50 41 50 49 77 54 321 281 205 232 157 94 56 32 30 22 42 123 136 196 264 236 219 266 251 241 277 291 143 208 245 63 113 131 129 20 60 52 302 336 349 340 343 339 309 289 309 339 355 360 343 324 338 352 338 333 358 190 256 310 342 26 44 42 44 45 36 35 43 41 38 37 33 24 9